Location: Hawks Ness
(60.2333°N, 1.1667°W)
Time: 03:16:41
(UTC+00:00)

Cosmos 1570 Rocket - Pass Details

Date: 22 October 2019
Orbit: 763 x 788 km, 74.1° (Epoch: 16 November)

Event Time Altitude Azimuth Distance (km) Brightness Sun altitude
Exits shadow 04:15:13 - 326° (NW) 3,168 7.0 -21.0°
Reaches altitude 10° 04:17:18 10° 328° (NNW) 2,365 6.4 -20.8°
Maximum altitude 04:22:41 73° 54° (NE) 830 4.2 -20.1°
Drops below altitude 10° 04:28:01 10° 139° (SE) 2,342 6.9 -19.5°
Sets 04:30:24 0° 142° (SE) 3,264 7.6 -19.2°
